Location: Keewatin
(47.4004°N, 93.0827°W)
Time: 13:44:08
(UTC+00:00)

N. Korean satellite - Visible Passes

Search period start: 10 December 2019 00:00
Search period end: 20 December 2019 00:00
Orbit: 456 x 506 km, 97.2° (Epoch: 09 December)

Date Brightness Start Highest point End Pass type
(mag) Time Alt. Az. Time Alt. Az. Time Alt. Az.
10 Dec 9.3 11:19:47 10° NE 11:22:28 20° E 11:25:06 10° SE visible
10 Dec 7.3 12:52:47 10° N 12:55:54 29° WNW 12:58:59 10° SW visible
10 Dec 7.7 23:30:30 10° S 23:34:07 50° W 23:37:43 10° NNW visible
11 Dec 10.1 10:56:13 10° E 10:56:47 10° E 10:57:20 10° E visible
11 Dec 6.5 12:27:04 10° N 12:30:35 59° WNW 12:34:00 10° SSW visible
11 Dec 6.6 23:04:58 10° SSE 23:08:40 80° ENE 23:12:22 10° N visible
12 Dec 6.9 12:01:38 10° NNE 12:05:10 65° ESE 12:08:36 10° S visible
13 Dec 9.8 00:14:24 10° SW 00:16:51 17° W 00:19:19 10° NW visible
13 Dec 8.4 11:36:27 10° NNE 11:39:38 31° E 11:42:44 10° SSE visible
13 Dec 7.9 13:10:15 10° NNW 13:12:51 19° WNW 13:15:24 10° WSW visible
13 Dec 8.7 23:47:56 10° SSW 23:51:15 31° W 23:54:35 10° NNW visible
14 Dec 9.6 11:11:45 10° NE 11:14:00 16° E 11:16:14 10° SE visible
14 Dec 7.0 12:44:19 10° N 12:47:34 36° WNW 12:50:46 10° SW visible
14 Dec 7.2 23:22:05 10° S 23:25:44 63° W 23:29:23 10° NNW visible
15 Dec 6.3 12:18:41 10° N 12:22:12 75° WNW 12:25:38 10° SSW visible
15 Dec 6.6 22:56:40 10° SSE 23:00:19 63° ENE 23:03:56 10° N visible
16 Dec 10.2 00:33:09 10° WSW 00:34:06 11° W 00:35:02 10° WNW visible
16 Dec 7.4 11:53:18 10° NNE 11:56:45 50° E 12:00:05 10° S visible
17 Dec 9.5 00:05:37 10° SW 00:08:25 20° W 00:11:13 10° NW visible
17 Dec 8.9 11:28:15 10° NE 11:31:10 25° E 11:34:03 10° SSE visible
17 Dec 7.6 13:01:41 10° NNW 13:04:30 23° WNW 13:07:17 10° WSW visible
17 Dec 8.2 23:39:23 10° SSW 23:42:51 38° W 23:46:17 10° NNW visible
18 Dec 9.9 11:03:52 10° ENE 11:05:31 13° E 11:07:10 10° ESE visible
18 Dec 6.7 12:35:50 10° N 12:39:11 45° WNW 12:42:29 10° SW visible
18 Dec 6.7 23:13:41 10° S 23:17:21 80° WSW 23:21:00 10° NNW visible
19 Dec 6.4 12:10:17 10° NNE 12:13:47 85° ESE 12:17:13 10° SSW visible
